Simultaneous Nadir Overpasses (SNOs) Predictions

Prediction of SNOs between GOES-17 and TERRA Satellite Orbit:

Table of predicted SNOs for the next 14.0 days since TLE Epoch: 2/10/2024
Index Date Time (GOES-17) GOES-17 Lat,Lon TERRA Lat,Lon Distance(km) Time Diff (sec)
1 02/11/2024 04:35:23 -0.01,-104.69 0.80,-100.71 452.19 80
2 02/11/2024 16:55:24 0.00,-104.70 0.17,-105.58 100.34 80
3 02/13/2024 16:41:05 0.01,-104.70 -0.65,-101.48 366.03 80
4 02/14/2024 05:01:16 -0.00,-104.70 -0.35,-106.39 191.55 80
5 02/16/2024 04:41:37 -0.01,-104.71 0.50,-102.29 274.80 80
6 02/16/2024 17:01:38 0.00,-104.71 0.52,-107.16 278.10 80
7 02/18/2024 16:47:19 0.00,-104.72 -0.36,-103.06 188.36 80
8 02/19/2024 05:07:29 0.00,-104.72 -0.68,-107.96 368.73 80
9 02/21/2024 04:47:49 -0.00,-104.72 0.19,-103.86 98.10 80
10 02/21/2024 17:07:50 -0.00,-104.72 0.84,-108.73 455.10 80
11 02/23/2024 16:53:30 0.00,-104.73 -0.05,-104.63 12.94 80
